星链-32666 (STARLINK-32666)

导读 | 星芒AI

STARLINK-32666 是 SpaceX 星链计划中的一颗低轨通信卫星,属于第四代星链卫星(v1.5)系列。该卫星于2024年发射,旨在为全球用户提供高速互联网服务。它运行在约550公里高度的近地轨道,采用先进推进系统和激光通信技术,以提高网络效率和减少延迟。星链项目致力于构建全球覆盖的宽带网络,特别是在偏远和网络基础设施薄弱地区。

基本信息
目录编号:
62214
目录名称:
STARLINK-32666
国际标识:
2024-229Y
轨道中心:
EARTH
卫星名称:
星链-32666
卫星全名:
星链-32666 (STARLINK-32666)
卫星状态:
在轨 (已飞行381 天)
发射日期:
2024-12-04 UTC
国别 :
美国 (US)
星等 :
--
轨道信息
数据来源 国际轨道数据
星历时间: 2025-12-19T15:23:56+0800
1天前
查看轨道信息
半长轴: 6861.14km
偏心率: 0.0001529
轨道倾角: 43.003°
近地点辐角 270.438°
升交点赤经 5.044°
平近点角 89.630°
近地点: 481.953km
远地点: 484.053km
周期: 94.266分钟
每日圈数: 15.275956
详细信息
固有亮度:
5
最大亮度:
2.5
卫星平台:
Starlink V1.0
覆盖范围:
全球
运营商:
太空探索技术公司
运营商所在国:
美国
制造商(研发单位):
太空探索技术公司
制造商所在国:
美国
使用方式:
暂无
卫星简介
Starlink 计划是 SpaceX 推出的全球卫星互联网项目,通过发射低轨道卫星,为全球尤其是偏远地区提供高速、低延迟的互联网服务。自 2019 年起,Starlink 已部署数千颗卫星,旨在缩小全球数字鸿沟,推动互联网普及。该项目还为军事、航空等行业提供通信支持,带来广泛经济效益。
2D轨道图
3D轨道图
轨道高度分析图
轨道倾角分析图
轨道综合分析图
查看轨道综合分析图